www.pogodaiklimat.ru

Погода и климат >> Архив погоды >> Буркина-Фасо >> Boromo


ПОГОДА в Boromo

  • Прогноз погоды в Boromo
  • Монитор погоды в Boromo
  • Климат города

АРХИВ ПОГОДЫ в Boromo

Время (UTC), дата Ветер
(напр.,м/с)
 
Видим.   Явления Облачность Т
(С)
Тd
(С)
f
(%)
Тe
(С)
Тes
(С)
Комфортность P
(гПа)
Po
(гПа)
Тmin
(С)
Tmax
(С)
R
(мм)
S
(см)
06 17.03 штиль 0 10 км 9/0
[Ci sp]
+21.6 +5.0 34 +22 +22 комфорт 1005.7 975.8 +21.1
09 17.03 Ю 3 10 км 9/0
[Ci sp]
+31.3 +2.6 16 +29 +35 жарко 1007.4 977.5
12 17.03 Ю 2 10 км 9/0
[Ci sp]
+40.0 +3.8 11 +37 +54 опасность
солнечного
удара
1005.9 976.4
15 17.03 ЮЗ 2 10 км 9/0
[Ci sp]
+42.4 +4.1 10 +39 +49 очень
жарко
1003.3 973.8
18 17.03 штиль 0 10 км 9/0
[Ci sp]
+38.9 +3.7 11 +36 +36 очень
жарко
1003.9 974.1 +42.6
00 18.03 штиль 0 10 км 9/0
[Ci sp]
+27.3 +7.6 29 +27 +27 жарко 1005.7 976.2
03 18.03 штиль 0 10 км 9/0
[Ci sp]
+25.3 +7.1 31 +25 +25 комфорт 1004.7 975.2
06 18.03 штиль 0 10 км 9/0
[Ci sp]
+24.2 +8.3 36 +25 +25 комфорт 1005.6 975.8 +24.0
09 18.03 ЮЗ 3 10 км 9/0
[Ci sp]
+32.3 +17.1 40 +36 +42 очень
душно
1007.1 977.4
12 18.03 ЮЗ 2 10 км 9/1 600 м
[Sc Ci sp]
+38.4 +18.6 32 +43 +58 опасность
перегрева
1006.0 976.4
15 18.03 ЮВ 2 10 км 9/3 600 м
[Cu Sc Ci sp]
+41.2 +10.1 16 +40 +47 очень
жарко
1003.0 973.5
18 18.03 Ю 1 10 км 9/1 600 м
[Sc Ci sp]
+39.2 +13.7 22 +39 +39 очень
жарко
1003.8 974.1 +41.7
00 19.03 штиль 0 10 км 9/0
[Ci sp]
+31.8 +14.8 36 +34 +34 душно 1006.5 977.0
03 19.03 штиль 0 10 км 9/0
[Ci sp]
+29.7 +15.0 41 +32 +32 душно 1005.3 976.0
06 19.03 штиль 0 10 км 9/0
[Ci sp]
+28.3 +15.9 47 +31 +31 душно 1006.7 977.1 +27.9
09 19.03 ЮЗ 4 10 км 9/0
[Ci sp]
+32.9 +18.6 43 +38 +43 очень
душно
1008.5 978.8
12 19.03 СЗ 4 10 км 9/1 600 м
[Sc Ci sp]
+38.3 +18.8 32 +42 +53 опасность
перегрева
1007.0 977.5
15 19.03 З 3 10 км 9/5 600 м
[Cu Sc Ac trans Ci sp]
+39.0 +16.1 26 +41 +44 опасность
перегрева
1004.1 974.7
18 19.03 штиль 0 10 км {гроза} 9/1 600 м
[Sc Ac As Ci sp]
+36.7 +17.6 33 +40 +40 очень
душно
1004.7 975.1 +41.0
00 20.03 штиль 0 10 км 9/0
[Ci sp]
+31.0 +17.1 43 +35 +35 очень
душно
1006.9 977.4
03 20.03 штиль 0 10 км 9/0
[Ac As Ci sp]
+30.0 +16.0 43 +33 +33 душно 1005.4 976.0
06 20.03 Ю 2 10 км гроза без осадков {дождь} 10/1 1000 м
[Cb cap Ac As]
+26.3 +20.5 70 +33 +33 очень
душно
1010.1 980.3 +25.6 1
09 20.03 ЮЗ 3 15 км {гроза} 10/0
[Ac As]
+27.4 +19.9 64 +34 +36 очень
душно
1013.1 983.1
12 20.03 ЮЗ 3 15 км {гроза} 9/0
[Ac As Ci sp]
+28.6 +18.7 55 +34 +40 очень
душно
1012.1 982.0
15 20.03 З 5 15 км {дождь} 9/0
[Ac trans Ci sp]
+32.1 +17.2 41 +36 +39 очень
душно
1008.8 979.0
00 21.03 штиль 0 10 км 9/0
[Ci sp]
+26.8 +17.8 58 +31 +31 душно 1010.3 980.0
03 21.03 штиль 0 10 км 9/0
[Ci sp]
+25.0 +18.0 65 +29 +29 душно 1008.4 978.3
06 21.03 штиль 0 10 км 9/0
[Ci sp]
+24.8 +16.5 60 +28 +28 жарко 1008.7 978.6 +24.0
09 21.03 С 4 2000 м пыль 9/0
[Ci sp]
+30.6 +6.9 23 +29 +35 жарко 1010.5 980.4
12 21.03 С 4 2500 м пыль 9/0
[Cs]
+36.7 +6.1 15 +34 +46 очень
жарко
1008.8 979.0
15 21.03 СВ 3 3500 м пыль 9/0
[Ci sp]
+38.8 +5.3 13 +36 +44 очень
жарко
1006.0 976.3
18 21.03 СВ 1 4000 м пыль 9/0
[Ac trans Ci sp]
+37.8 +8.1 16 +36 +36 очень
жарко
1006.4 976.6 +39.7
00 22.03 С 1 4000 м пыль 9/0
[Ci sp]
+32.0 +8.3 23 +31 +31 жарко 1008.0 978.5
03 22.03 С 1 4000 м пыль 9/0
[Ci sp]
+29.8 +5.3 21 +28 +28 жарко 1006.5 977.0
06 22.03 штиль 0 4500 м пыль 9/0
[Ci sp]
+27.4 +9.1 32 +28 +28 жарко 1007.9 978.2 +27.1
12 22.03 штиль 0 4500 м пыль 9/0
[Ci sp]
+37.5 +5.5 14 +35 +59 опасность
солнечного
удара
1008.5 978.9
15 22.03 штиль 0 6000 м пыль 9/0
[Ci sp]
+41.0 +6.2 12 +38 +51 опасность
солнечного
удара
1005.2 975.9
18 22.03 В 2 6000 м пыль 9/0
[Ci sp]
+38.1 +3.6 12 +35 +35 очень
жарко
1005.4 975.8 +41.0
00 23.03 штиль 0 6000 м пыль 9/0
[Ci sp]
+29.4 +8.2 27 +29 +29 жарко 1008.0 978.4
03 23.03 штиль 0 6000 м пыль 9/0
[Ci sp]
+27.3 +3.7 22 +26 +26 жарко 1007.5 977.9
06 23.03 штиль 0 6000 м пыль 9/0
[Ci sp]
+24.5 +7.9 35 +25 +25 комфорт 1008.2 978.4 +24.2
09 23.03 В 2 6000 м пыль 9/0
[Ci sp]
+33.0 +2.0 14 +30 +38 жарко 1009.9 980.2
12 23.03 СВ 3 8000 м пыль 9/0
[Ci sp]
+38.6 +1.8 10 1008.5 978.9
15 23.03 ЮЗ 2 8000 м пыль 9/0
[Ci sp]
+41.0 +4.4 11 +38 +48 очень
жарко
1005.3 975.8
18 23.03 штиль 0 8000 м пыль 9/0
[Ci sp]
+38.2 +7.1 15 +36 +36 очень
жарко
1005.4 975.7 +41.3
00 24.03 штиль 0 8000 м пыль 9/0
[Ci sp]
+32.0 +9.1 24 +31 +31 жарко 1008.6 979.1
03 24.03 штиль 0 8000 м пыль 9/0
[Ci sp]
+27.8 +8.5 30 +28 +28 жарко 1007.3 977.8

 

Местоположение метеостанции Boromo (Буркина-Фасо): широта 11.75 долгота -2.93 высота над уровнем моря 271 м.

В архиве по умолчанию представлена погода в Boromo за последнюю неделю. Архивные данные за месяц целиком и за предыдущие месяцы, начиная с января 2011 года, Вы можете получить, выбрав интересующий диапазон дат из раскрывающегося списка и нажав кнопку "Ввод!".

Внимание! Время в таблицах - всемирное. Для получения местного времени необходимо прибавить поправку, которая в Boromo равна 0 ч.

Смотрите также архив погоды в соседних городах и на ближайших метеорологических станциях:

Погода в Dedougou (Буркина-Фасо) (100 км)
Погода в Gaoua (Буркина-Фасо) (160 км)
Погода в Bobo-Dioulasso (Буркина-Фасо) (165 км)
Погода в Ouagadougou (Буркина-Фасо) (167 км)
Погода в Wa (Гана) (195 км)
Погода в Po (Буркина-Фасо) (205 км)
Погода в Ouahigouya (Буркина-Фасо) (210 км)
Погода в Navrongo (Гана) (221 км)
Погода в San (Мали) (271 км)
Погода в Koutiala (Мали) (285 км)

Пояснения к столбцам:

Ветер - указаны скорость ветра в м/с - средняя за 10 мин, порывы в срок и между сроками (в фигурных скобках) и направление, откуда дует ветер: С - северный, СВ - северо-восточный, В - восточный, ЮВ - юго-восточный, Ю - южный, ЮЗ - юго-западный, З - западный, СЗ - северо-западный.
Видимость - горизонтальная дальность видимости в метрах или километрах. При видимости от 1 до 10 км при отсутствии осадков обычно наблюдается дымка, при ухудшении видимости до 1 км и менее - туман. В сухую погоду видимость может ухудшаться дымом, пылью или мглою.
Явления - указаны атмосферные явления, наблюдавшиеся в срок или в последний час перед сроком; фигурными скобками обозначены явления, наблюдавшиеся между сроками (за 1-3 часа до срока); квадратными скобками обозначены град или гололедные отложения с указанием их диаметра в мм.
Облачность - указаны через наклонную черту общая и нижняя облачность в баллах и высота нижней границы облаков в метрах; квадратными скобками обозначены формы облаков: Ci - перистые, Cs - перисто-слоистые, Cc - перисто-кучевые, Ac - высококучевые, As - высокослоистые, Sc - слоисто-кучевые, Ns - слоисто-дождевые, Cu - кучевые, Cb - кучево-дождевые. Подробнее классификацию облаков см. в Атласе облаков (PDF).
T - Температура воздуха - температура, измеренная на высоте 2 м над землей.
Td - Температура точки росы - температура, при понижении до которой содержащийся в воздухе водяной пар достигнет насыщения.
f - Относительная влажность воздуха - влажноcть воздуха, измеренная на высоте 2 м над землей.
Te - Эффективная температура - температура, которую ощущает одетый по сезону человек в тени. Характеристика душности погоды. При расчете учитывается влияние влажности воздуха и скорости ветра на теплоощущения человека.
Tes - Эффективная температура на солнце - температура, которую ощущает человек, с поправкой на солнечный нагрев. Характеристика знойности погоды. Зависит от высоты солнца над горизонтом, облачности и скорости ветра. Ночью, в пасмурную погоду, а также при ветре 12 м/с и более поправка равна нулю.
P - Атмосферное давление - приведенное к уровню моря атмосферное давление.
Po - Атмосферное давление - измеренное на уровне метеостанции атмосферное давление.
Tmin - Минимальная температура - минимум температуры воздуха на высоте 2 м над землей.
Tmax - Максимальная температура - максимум температуры воздуха на высоте 2 м над землей.
R - Количество осадков - Количество выпавших осадков, мм. При наведении курсора мыши на число - период времени, за который выпало указанное количество осадков.
S - Снежный покров - Высота снежного покрова, см. При наведении курсора мыши на число - состояние снежного покрова и степень покрытия местности в баллах.